Location: Altleiningen
(49.5078°N, 8.0741°E)
Time: 15:29:15
(UTC+00:00)

Cosmos 2333 Rocket - Visible Passes

Search period start: 12 June 2021 00:00
Search period end: 22 June 2021 00:00
Orbit: 839 x 863 km, 70.8° (Epoch: 12 June)

Date Brightness Start Highest point End Pass type
(mag) Time Alt. Az. Time Alt. Az. Time Alt. Az.
12 Jun 4.7 01:42:21 10° WNW 01:45:18 14° NNW 01:48:16 10° N visible
12 Jun 2.9 22:00:01 22° SSE 22:03:00 37° ESE 22:08:14 10° NE visible
12 Jun 3.1 23:41:57 11° SW 23:47:13 45° NW 23:52:43 10° NNE visible
13 Jun 4.7 01:30:05 10° WNW 01:33:03 14° NNW 01:36:00 10° N visible
13 Jun 2.9 21:47:24 20° SSE 21:50:44 37° ESE 21:55:58 10° NE visible
13 Jun 3.2 23:29:26 10° SW 23:34:57 45° NW 23:40:27 10° NNE visible
14 Jun 4.7 01:17:49 10° WNW 01:20:47 14° NNW 01:23:44 10° N visible
14 Jun 2.9 21:34:43 17° SSE 21:38:28 37° ESE 21:43:42 10° NE visible
14 Jun 3.2 23:17:11 10° SW 23:22:41 45° NW 23:28:11 10° NNE visible
15 Jun 4.8 01:05:33 10° WNW 01:08:31 14° NNW 01:11:28 10° N visible
15 Jun 2.9 21:21:56 15° SSE 21:26:13 37° ESE 21:31:26 10° NE visible
15 Jun 3.2 23:04:54 10° SW 23:10:24 45° NW 23:15:55 10° NNE visible
16 Jun 4.8 00:53:18 10° WNW 00:56:15 14° NNW 00:59:12 10° N visible
16 Jun 2.9 21:08:59 11° S 21:13:56 37° ESE 21:19:09 10° NE visible
16 Jun 3.2 22:52:38 10° SW 22:58:09 45° NW 23:03:39 10° NNE visible
17 Jun 4.8 00:41:02 10° WNW 00:43:59 14° NNW 00:46:56 10° N visible
17 Jun 2.8 20:56:28 10° S 21:01:41 37° ESE 21:06:54 10° NE visible
17 Jun 3.3 22:40:23 10° SW 22:45:53 45° NW 22:51:23 10° NNE visible
18 Jun 4.9 00:28:46 10° WNW 00:31:43 14° NNW 00:34:40 10° N visible
18 Jun 2.8 20:44:12 10° S 20:49:25 37° ESE 20:54:38 10° NE visible
18 Jun 3.3 22:28:07 10° SW 22:33:37 45° NW 22:39:07 10° NNE visible
19 Jun 4.9 00:16:31 10° WNW 00:19:27 14° NNW 00:22:24 10° N visible
19 Jun 2.8 20:31:56 10° S 20:37:09 37° ESE 20:42:22 10° NE visible
19 Jun 3.3 22:15:52 10° SW 22:21:21 45° NW 22:26:52 10° NNE visible
20 Jun 4.9 00:04:14 10° WNW 00:07:11 14° NNW 00:10:08 10° N visible
20 Jun 2.8 20:19:41 10° S 20:24:53 37° ESE 20:30:06 10° NE visible
20 Jun 3.3 22:03:35 10° SW 22:09:05 45° NW 22:14:35 10° NNE visible
20 Jun 5.0 23:51:59 10° WNW 23:54:55 14° NNW 23:57:51 10° N visible
21 Jun 3.4 21:51:19 10° SW 21:56:49 45° NW 22:02:19 10° NNE visible
21 Jun 5.0 23:39:43 10° WNW 23:42:40 14° NNW 23:45:36 10° N visible
